sat.trackr.live / text

‹ back to catalog

STARLINK-33581

NORAD 62784 · 2025-015AC

PAYLOAD ACTIVE UNKNOWN

§ Identity

Operator
Country
US
Launch date
2025-01-21
Launch site
AFWTR
Launch vehicle
Mass (kg)
RCS (m²)

Purposes: comms

External: N2YO · Heavens-Above · Gunter

§ Orbital elements

Epoch: 2026-09-21T21:58:56.594784Z

Period
94.01 min
Inclination
53.1597°
Eccentricity
0.0002151
Mean motion
15.31713764 rev/d
Perigee alt
469.2 km
Apogee alt
472.2 km
Semi-major
6,848.8 km
B*
4.9713e-4
RAAN
129.6364°
Arg perigee
141.8574°
Mean anomaly
218.2580°
Rev number
9,454

§ Raw data

STARLINK-335811 62784U 25015AC  26264.91593281  .00015099  00000+0  49713-3 0  99982 62784  53.1597 129.6364 0002151 141.8574 218.2580 15.31713764 94545

JSON: /api/v1/satellites/62784 · /tle

For live sub-satellite position, see the globe view (requires WebGL).

§ Visibility from observer

Set your observer location to see the next 7 days of passes ≥ 10°. The values pass through the URL so the page stays shareable.

No JS? Fill the form by hand. The geolocation button needs JavaScript.